Location: Allentsteig
(48.6833°N, 15.3167°E)
Time: 00:54:43
(UTC+00:00)

Cosmos 2034 Rocket - Visible Passes

Search period start: 24 January 2021 00:00
Search period end: 03 February 2021 00:00
Orbit: 958 x 1000 km, 82.9° (Epoch: 23 January)

Date Brightness Start Highest point End Pass type
(mag) Time Alt. Az. Time Alt. Az. Time Alt. Az.
24 Jan 5.1 03:32:10 10° SSE 03:38:07 44° E 03:44:05 10° NNE visible
24 Jan 4.5 05:17:51 10° SW 05:23:41 37° WNW 05:29:32 10° N visible
24 Jan 5.8 16:09:47 10° NNW 16:15:22 35° W 16:20:54 10° SSW visible
25 Jan 6.7 02:17:17 10° ESE 02:20:10 13° ENE 02:23:03 10° NE visible
25 Jan 4.2 03:58:10 10° S 04:04:30 75° E 04:10:52 10° NNE visible
25 Jan 5.1 05:45:47 10° WSW 05:50:40 23° WNW 05:55:34 10° NNW visible
25 Jan 6.6 16:37:05 10° NW 16:41:30 21° W 16:45:53 10° SW visible
26 Jan 6.1 02:41:17 10° SE 02:46:10 24° E 02:51:02 10° NNE visible
26 Jan 3.9 04:24:44 10° SSW 04:31:04 67° WNW 04:37:25 10° N visible
26 Jan 7.0 17:05:41 10° WNW 17:07:27 11° WNW 17:09:11 10° W visible
27 Jan 5.2 03:06:30 10° SSE 03:12:21 40° E 03:18:11 10° NNE visible
27 Jan 4.4 04:51:54 10° SW 04:57:49 40° WNW 05:03:45 10° N visible
28 Jan 6.8 01:52:08 10° E 01:54:27 12° ENE 01:56:46 10° NE visible
28 Jan 4.2 03:32:23 10° S 03:38:42 69° E 03:45:01 10° NNE visible
28 Jan 5.0 05:19:43 10° WSW 05:24:46 24° WNW 05:29:50 10° NNW visible
29 Jan 6.1 02:15:46 10° SE 02:20:25 22° E 02:25:03 10° NE visible
29 Jan 3.9 03:58:53 10° SSW 04:05:14 72° W 04:11:36 10° N visible
29 Jan 5.5 05:48:30 10° W 05:51:56 15° WNW 05:55:22 10° NNW visible
29 Jan 6.8 16:39:19 10° NW 16:41:43 12° WNW 16:44:06 10° W visible
30 Jan 5.3 02:43:20 23° SE 02:46:34 37° E 02:52:18 10° NNE visible
30 Jan 4.3 04:28:15 22° SW 04:31:57 43° WNW 04:37:58 10° N visible
31 Jan 6.7 01:27:12 10° E 01:28:45 11° ENE 01:30:16 10° ENE visible
31 Jan 4.3 03:11:29 50° SE 03:12:54 63° E 03:19:09 10° NNE visible
31 Jan 4.9 04:56:20 20° W 04:58:52 26° WNW 05:04:06 10° N visible
01 Feb 6.1 01:54:10 20° E 01:54:41 20° E 01:59:03 10° NE visible
01 Feb 3.8 03:38:58 74° WSW 03:39:24 78° W 03:45:46 10° N visible
01 Feb 5.4 05:23:47 14° W 05:26:00 16° WNW 05:29:44 10° NNW visible
02 Feb 5.4 02:21:21 33° ENE 02:21:21 33° ENE 02:26:22 10° NNE visible
02 Feb 4.2 04:06:09 46° WNW 04:06:09 46° WNW 04:12:10 10° N visible
